EW3683 Weather Reports


Display with metric or nautical units.
time (UTC)temp
F
wind
direction
speed
MPH
gust
MPH
rain 1hr
in
rain 24hr
in
rain mn
in
humidity
%
barometer
mb
20190918111528 52 305 0.0 0.0 0.00 0.23 0.01 99 1008.4
20190918110018 52 305 0.0 0.0 0.00 0.23 0.01 99 1008.3
20190918104526 52 305 0.0 0.0 0.00 0.23 0.01 99 1008.2
20190918103029 52 305 0.0 0.0 0.00 0.23 0.01 99 1008.2
20190918101533 52 305 0.0 0.0 0.00 0.23 0.01 99 1008.2
20190918100038 52 305 0.0 0.0 0.00 0.23 0.01 99 1008.1
20190918094517 52 305 0.0 0.0 0.01 0.23 0.01 99 1008.1
20190918093009 52 305 0.0 0.0 0.01 0.23 0.01 99 1008.0
20190918091511 52 305 0.0 0.0 0.01 0.23 0.01 99 1008.1
20190918090011 52 305 0.0 0.0 0.01 0.23 0.01 98 1008.1
20190918084506 53 305 0.0 0.0 0.00 0.22 0.00 98 1008.0
20190918083147 53 305 0.0 0.0 0.00 0.22 0.00 98 1007.9
20190918081653 54 305 0.0 0.0 0.00 0.22 0.00 98 1007.8
20190918080126 54 305 0.0 0.0 0.00 0.22 0.00 98 1007.6
20190918074639 54 305 0.0 0.0 0.00 0.22 0.00 98 1007.6
20190918073155 54 305 0.0 0.0 0.00 0.22 0.00 98 1007.5
20190918071659 55 305 0.0 0.0 0.00 0.22 0.00 98 1007.6
20190918070316 55 305 0.0 0.0 0.00 0.22 0.00 98 1007.5
20190918064618 55 305 0.0 0.0 0.00 0.22 0.22 98 1007.5
20190918063148 55 305 0.0 0.0 0.00 0.22 0.22 98 1007.6
20190918061605 55 305 0.0 0.0 0.00 0.22 0.22 98 1007.6
20190918060222 55 305 0.0 0.0 0.00 0.22 0.22 99 1007.7
20190918054652 55 305 0.0 0.0 0.00 0.22 0.22 98 1007.8
20190918053221 55 305 0.0 0.0 0.00 0.22 0.22 98 1007.7
20190918051642 55 305 0.0 0.0 0.00 0.22 0.22 98 1007.5
20190918050143 55 305 0.0 0.0 0.00 0.22 0.22 98 1007.5
20190918044603 56 305 0.0 0.0 0.00 0.23 0.22 98 1007.3
20190918043124 56 305 0.0 0.0 0.00 0.23 0.22 97 1007.0
20190918041657 56 305 0.0 0.0 0.00 0.23 0.22 97 1007.0
20190918040146 56 305 0.0 0.0 0.00 0.23 0.22 98 1006.8
20190918034630 56 305 0.0 0.0 0.00 0.24 0.22 98 1007.0
20190918033152 56 305 0.0 0.0 0.00 0.24 0.22 98 1007.0
20190918031643 56 336 0.0 0.0 0.00 0.24 0.22 98 1006.8
20190918030131 56 335 0.0 0.0 0.00 0.24 0.22 98 1006.7
20190918024628 56 343 0.0 0.0 0.00 0.24 0.22 97 1006.6
20190918023137 57 343 0.0 0.0 0.00 0.24 0.22 97 1006.5
20190918021559 57 343 0.0 0.0 0.00 0.24 0.22 97 1006.7
20190918020107 58 343 0.0 0.0 0.00 0.24 0.22 97 1006.7
20190918014556 58 343 0.0 0.0 0.00 0.24 0.22 97 1006.8
20190918013121 58 279 0.0 2.0 0.00 0.24 0.22 97 1006.9
20190918011556 58 192 0.0 3.0 0.00 0.24 0.22 97 1006.9
20190918010139 58 355 0.0 0.0 0.00 0.24 0.22 97 1007.0
20190918004623 58 355 0.0 0.0 0.00 0.24 0.22 98 1007.0
20190918003057 59 355 0.0 2.0 0.00 0.24 0.22 98 1007.0
20190918001537 59 319 0.0 0.0 0.00 0.24 0.22 98 1007.2
20190918000121 58 319 0.0 0.0 0.01 0.24 0.22 98 1007.2
20190917234602 58 327 0.0 0.0 0.01 0.24 0.22 97 1007.3
20190917233136 58 262 0.0 0.0 0.01 0.24 0.22 96 1007.2
20190917231625 59 350 0.0 0.0 0.01 0.24 0.22 97 1007.1
20190917230043 59 285 1.0 4.0 0.00 0.23 0.21 95 1007.3
20190917224543 59 99 0.0 4.0 0.00 0.23 0.21 96 1007.2
20190917223037 59 5 0.0 5.0 0.00 0.23 0.21 97 1007.3
20190917221541 58 329 0.0 3.0 0.00 0.23 0.21 96 1007.3
20190917220036 58 5 0.0 4.0 0.00 0.23 0.21 97 1007.3
20190917214524 58 279 0.0 5.0 0.00 0.24 0.21 96 1007.3
20190917213030 58 309 0.0 5.0 0.00 0.24 0.21 97 1007.2
20190917211548 58 295 0.0 3.0 0.00 0.24 0.21 95 1007.2
20190917210030 58 256 0.0 9.0 0.00 0.24 0.21 97 1007.2
20190917204544 57 250 0.0 4.0 0.00 0.24 0.21 96 1007.5
20190917203034 57 322 0.0 4.0 0.01 0.24 0.21 95 1007.3
20190917201532 58 350 1.0 10.0 0.01 0.24 0.21 95 1007.4
20190917200059 58 229 1.0 11.0 0.01 0.24 0.21 94 1007.5
20190917194528 58 312 1.0 10.0 0.02 0.24 0.21 95 1007.3
20190917193029 57 337 1.0 8.0 0.01 0.23 0.20 96 1007.5
20190917191606 57 197 1.0 5.0 0.02 0.23 0.20 98 1007.5
20190917190100 56 202 0.0 6.0 0.02 0.23 0.20 98 1007.5
20190917184515 56 251 1.0 7.0 0.01 0.22 0.19 96 1007.2
20190917183025 56 266 2.0 5.0 0.01 0.22 0.19 97 1007.3
20190917181516 56 258 2.0 7.0 0.00 0.21 0.18 96 1007.1
20190917180119 57 299 1.0 11.0 0.00 0.21 0.18 98 1007.1
20190917174620 56 253 2.0 6.0 0.01 0.21 0.18 98 1007.2
20190917173056 56 204 0.0 9.0 0.01 0.21 0.18 98 1007.4
20190917171636 55 301 2.0 10.0 0.01 0.21 0.18 98 1007.3
20190917170138 55 269 2.0 5.0 0.01 0.21 0.18 98 1007.6
20190917164636 55 302 2.0 5.0 0.03 0.20 0.17 98 1007.3
20190917163117 55 288 1.0 5.0 0.06 0.20 0.17 98 1007.2
20190917161631 55 254 2.0 9.0 0.10 0.20 0.17 98 1007.4
20190917160105 54 301 1.0 11.0 0.13 0.20 0.17 98 1007.2
20190917154556 54 243 1.0 7.0 0.11 0.17 0.14 97 1007.3
20190917153119 55 246 1.0 8.0 0.09 0.14 0.11 98 1007.5
20190917151539 55 11 2.0 5.0 0.05 0.10 0.07 98 1007.8
20190917150101 55 285 1.0 7.0 0.03 0.07 0.04 97 1008.2
20190917144600 55 279 0.0 4.0 0.01 0.05 0.02 97 1008.1
20190917143036 55 44 1.0 8.0 0.01 0.05 0.02 97 1008.3
20190917141607 55 304 0.0 2.0 0.02 0.05 0.02 97 1008.2
20190917140043 55 28 1.0 9.0 0.01 0.04 0.01 97 1008.4
20190917134558 55 324 0.0 4.0 0.01 0.04 0.01 97 1008.5
20190917133053 55 304 0.0 3.0 0.01 0.04 0.01 97 1008.6
20190917131526 55 302 0.0 6.0 0.00 0.03 0.00 97 1008.6
20190917130030 55 324 0.0 2.0 0.00 0.03 0.00 97 1008.8
20190917124600 56 251 0.0 6.0 0.00 0.03 0.00 97 1009.1
20190917123021 56 315 0.0 2.0 0.00 0.03 0.00 96 1009.4
20190917121522 55 347 0.0 1.0 0.00 0.03 0.00 96 1009.5
20190917120018 55 311 0.0 0.0 0.00 0.03 0.00 97 1009.4
20190917114604 55 331 0.0 3.0 0.00 0.03 0.00 97 1009.7
20190917113022 55 250 0.0 2.0 0.00 0.03 0.00 97 1009.8